Regional Weather Roundup
Issued by NWS Sterling, VA

Home | Current Version | Previous Version | Text Only | Print | Product List | Glossary On
Versions: 1 2 3 4 5 6 7 8 9 10 11 12 13 14 15 16 17 18 19 20 21 22 23 24 25 26 27 28 29 30 31 32 33 34 35 36 37 38 39 40 41 42 43 44 45 46 47 48 49 50
000
ASUS41 KLWX 020110
RWRLWX

REGIONAL WEATHER ROUNDUP
NATIONAL WEATHER SERVICE BALTIMORE MD/WASHINGTON DC
800 PM EST SUN FEB 01 2015

Note: "FAIR" indicates few or no clouds below 12,000 feet
with no significant weather and/or obstructions to visibility.
 TC=TEMPERATURE CELSIUS

 * =Non NWS site. Station does not report precipitation (e.g. rain,
    snow, etc.), thunder, or fog.

DCZ001-MDZ009-015-VAZ040>042-051-053>054-020200-
WASHINGTON METRO

CITY           SKY/WX    TMP DP  RH WIND       PRES   REMARKS
WASHINGTON NAT CLOUDY    41  21  44 SE5       30.01F
DULLES         CLOUDY    38  18  44 SE6       29.98F
ANDREWS AFB    CLOUDY    37  24  58 SE8       29.98F
FT BELVOIR     CLOUDY    39  22  50 SE5       30.00F
QUANTICO       CLOUDY    38  27  64 S8        30.00F
COLLEGE PARK*  CLOUDY    36  25  64 CALM      30.00F
LEESBURG*      CLOUDY    37  25  60 CALM      29.98F
MANASSAS*      CLOUDY    37  19  48 CALM      29.98F
GAITHERSBURG*  CLOUDY    36  19  51 E8        30.01F

$$

MDZ006>007-011-014-020200-
BALTIMORE METRO

CITY           SKY/WX    TMP DP  RH WIND       PRES   REMARKS
BWI AIRPORT    CLOUDY    36  24  62 SE5       30.02F
MD SCIENCE CTR   N/A     37  22  54 MISG      30.03F
MARTIN STATE   CLOUDY    37  25  60 E6        30.04F
ANNAPOLIS      CLOUDY    36  26  67 SE8       30.03F
FORT MEADE*    CLOUDY    36  25  64 SE5       30.04F

$$

MDZ012-015-019>023-020200-
MARYLAND EASTERN SHORE

CITY           SKY/WX    TMP DP  RH WIND       PRES   REMARKS
OCEAN CITY     CLOUDY    38  31  76 CALM      30.08F
SALISBURY      CLOUDY    37  26  64 SE8       30.04F
BAY BRIDGE AP*   N/A     36  21  55 S9        30.04F WCI  29
CAMBRIDGE*     CLOUDY    37  27  65 SE9       30.03F
EASTON*        CLOUDY    39  23  52 SE8       30.05

$$

MDZ017>025-020200-
SOUTHERN MARYLAND

CITY           SKY/WX    TMP DP  RH WIND       PRES   REMARKS
PATUXENT RIVER CLOUDY    37  30  75 SE12      30.02F
ST INIGOES     NOT AVBL
LEONARDTOWN*   CLOUDY    37  28  70 SE9       30.02F

$$

MDZ003>005-020200-
NORTH CENTRAL MARYLAND

CITY           SKY/WX    TMP DP  RH WIND       PRES   REMARKS
FREDERICK*     CLOUDY    36  21  55 CALM      30.02F
HAGERSTOWN APT LGT SNOW  35  24  64 S8        29.94F WCI  29
WESTMINSTER*   CLOUDY    34  19  55 SE9       29.97F WCI  26

$$

MDZ501>502-020200-
WESTERN MARYLAND

CITY           SKY/WX    TMP DP  RH WIND       PRES   REMARKS
OAKLAND*       CLOUDY    28 N/A N/A SE18G25   29.72F FOG     WCI  16
CUMBERLAND*    CLOUDY    34  28  80 CALM      29.92F

$$

VAZ025>031-020200-
SHENANDOAH VALLEY

CITY           SKY/WX    TMP DP  RH WIND       PRES   REMARKS
WINCHESTER*    LGT RAIN  41  19  42 S12       29.93F
FRONT ROYAL*   CLOUDY    37  27  65 S12G21    29.92F
LURAY*         LGT RAIN  41  32  70 SW13G23   29.92F
NEW MARKET*    CLOUDY    39  32  75 SW8G21    29.91F
STAUNTON*      LGT SNOW  37  30  77 S9G16     29.93F
WAYNESBORO*    CLOUDY    36  28  72 SE7       29.92F

$$

WVZ021-048>050-054>055-020200-
EASTERN WEST VIRGINIA PANHANDLE

CITY           SKY/WX    TMP DP  RH WIND       PRES   REMARKS
MARTINSBURG    CLOUDY    39  20  46 S10       29.94F
PETERSBURG*    LGT SNOW  35  32  87 SE5       29.89F

$$

VAZ036>039-050-020200-
CENTRAL FOOTHILLS

CITY           SKY/WX    TMP DP  RH WIND       PRES   REMARKS
CHARLOTTESVILL CLOUDY    39  15  37 NW3       29.96F
CULPEPER*      CLOUDY    37  25  60 CALM      29.97F
ORANGE*        CLOUDY    37  25  60 CALM      29.98F
GORDONSVILLE*  CLOUDY    37  21  52 CALM      29.96F
WARRENTON*     CLOUDY    39  25  56 CALM      29.96F

$$

VAZ055>057-020200-
NORTH AND CENTRAL PIEDMONT

CITY           SKY/WX    TMP DP  RH WIND       PRES   REMARKS
FREDERICKSBRG* CLOUDY    40  27  58 E6        29.97F
STAFFORD*      CLOUDY    40  21  48 CALM      30.02F

$$

NCZ024-NYZ072-PAZ021-071-VAZ022-071-020200-
OTHER REGIONAL OBSERVATIONS

CITY           SKY/WX    TMP DP  RH WIND       PRES   REMARKS
NEW YORK CITY  CLOUDY    35  20  54 SE5       30.11F
PHILADELPHIA   CLOUDY    36  21  54 SE8       30.09F
PITTSBURGH     LGT RAIN  35  34  96 SE9       29.69F FOG     WCI  28
ROANOKE        LGT RAIN  42  36  79 E9        29.92F
RICHMOND       CLOUDY    45  24  43 SE10      29.97F
RALEIGH        CLOUDY    53  29  39 S10       29.98F

$$

ANZ530>537-020200-
MARINE OBSERVATIONS

STATION/POSITION TIME  TEMP    WIND        PRES
                       AIR SEA DIR/SP/G
                 (UTC) (F)     (DEG/KT/KT) (MB)
THOMAS PT LIGHT  0100   36 35  150/ 11/ 12 1017.7F
BALT KEY BRIDGE  0100   36     110/ 11/ 12 1016.4F
COVE POINT       0100   36     170/ 14/ 15 1016.8R
LEWISETTA        0100   39 35  150/  6/  7 1016.0F
SOLOMONS ISLAND  0100      37                N/A
PINEY POINT      0100          150/ 14/ 14   N/A

$$




USA.gov is the U.S. government's official web portal to all federal, state and local government web resources and services.